Time,TemperatureF,DewpointF,PressureIn,WindDirection,WindDirectionDegrees,WindSpeedMPH,WindSpeedGustMPH,Humidity,HourlyPrecipIn,Conditions,Clouds,dailyrainin,SoftwareType,DateUTC
2013-02-18 00:00:00,15.8,4.7,30.30,West,259,3.0,3.0,61,0.00,CLR,,0.00,WeatherDisplay:10.37,2013-02-18 05:00:00,
2013-02-18 00:02:00,15.7,4.6,30.30,West,259,2.3,2.3,61,0.00,CLR,,0.00,WeatherDisplay:10.37,2013-02-18 05:02:00,
2013-02-18 00:07:00,15.5,4.4,30.30,WSW,255,3.0,3.0,61,0.00,CLR,,0.00,WeatherDisplay:10.37,2013-02-18 05:07:00,
2013-02-18 00:12:00,15.2,4.5,30.30,WSW,247,3.5,3.5,62,0.00,CLR,,0.00,WeatherDisplay:10.37,2013-02-18 05:12:00,
2013-02-18 00:17:00,15.0,4.3,30.30,SW,232,3.5,3.5,62,0.00,CLR,,0.00,WeatherDisplay:10.37,2013-02-18 05:17:00,
2013-02-18 00:22:00,14.8,4.1,30.30,SW,226,3.5,3.5,62,0.00,CLR,,0.00,WeatherDisplay:10.37,2013-02-18 05:22:00,
2013-02-18 00:27:00,14.6,4.3,30.30,SW,226,3.5,3.5,63,0.00,CLR,,0.00,WeatherDisplay:10.37,2013-02-18 05:27:00,
2013-02-18 00:32:00,14.6,4.3,30.30,SW,218,3.5,3.5,63,0.00,CLR,,0.00,WeatherDisplay:10.37,2013-02-18 05:32:00,
2013-02-18 00:37:00,14.6,4.3,30.30,SW,225,4.0,4.0,63,0.00,CLR,,0.00,WeatherDisplay:10.37,2013-02-18 05:37:00,
2013-02-18 00:42:00,14.5,4.2,30.30,SW,219,3.5,3.5,63,0.00,CLR,,0.00,WeatherDisplay:10.37,2013-02-18 05:42:00,
2013-02-18 00:47:00,14.4,4.1,30.30,SW,218,4.0,4.0,63,0.00,CLR,,0.00,WeatherDisplay:10.37,2013-02-18 05:47:00,
2013-02-18 00:52:00,14.6,4.6,30.30,SW,223,4.0,4.0,64,0.00,CLR,,0.00,WeatherDisplay:10.37,2013-02-18 05:52:00,
2013-02-18 00:57:00,14.5,4.2,30.31,SW,227,5.0,5.0,63,0.00,CLR,,0.00,WeatherDisplay:10.37,2013-02-18 05:57:00,
2013-02-18 01:02:00,14.3,4.3,30.31,SW,225,4.0,4.0,64,0.00,CLR,,0.00,WeatherDisplay:10.37,2013-02-18 06:02:00,
2013-02-18 01:07:00,14.3,4.3,30.31,SW,229,4.0,4.0,64,0.00,CLR,,0.00,WeatherDisplay:10.37,2013-02-18 06:07:00,
2013-02-18 01:12:00,14.3,4.3,30.32,SW,226,4.6,4.6,64,0.00,CLR,,0.00,WeatherDisplay:10.37,2013-02-18 06:12:00,
2013-02-18 01:17:00,14.1,4.1,30.31,SW,229,5.0,5.0,64,0.00,CLR,,0.00,WeatherDisplay:10.37,2013-02-18 06:17:00,
2013-02-18 01:22:00,13.9,4.0,30.31,SW,230,5.0,5.0,64,0.00,CLR,,0.00,WeatherDisplay:10.37,2013-02-18 06:22:00,
2013-02-18 01:27:00,13.8,3.9,30.32,SW,226,5.0,5.0,64,0.00,CLR,,0.00,WeatherDisplay:10.37,2013-02-18 06:27:00,
2013-02-18 01:32:00,13.6,4.0,30.32,SW,229,4.6,4.6,65,0.00,CLR,,0.00,WeatherDisplay:10.37,2013-02-18 06:32:00,
2013-02-18 01:37:00,13.5,3.9,30.31,SW,225,4.0,4.0,65,0.00,CLR,,0.00,WeatherDisplay:10.37,2013-02-18 06:37:00,
2013-02-18 01:42:00,13.5,3.9,30.31,SW,225,3.5,3.5,65,0.00,CLR,,0.00,WeatherDisplay:10.37,2013-02-18 06:42:00,
2013-02-18 01:47:00,13.4,3.8,30.31,SW,228,4.0,4.0,65,0.00,CLR,,0.00,WeatherDisplay:10.37,2013-02-18 06:47:00,
2013-02-18 01:52:00,13.5,3.9,30.31,SW,224,4.0,4.0,65,0.00,CLR,,0.00,WeatherDisplay:10.37,2013-02-18 06:52:00,
2013-02-18 01:57:00,13.6,3.7,30.31,SW,223,4.0,4.0,64,0.00,CLR,,0.00,WeatherDisplay:10.37,2013-02-18 06:57:00,
2013-02-18 02:02:00,13.7,3.8,30.32,SW,226,5.0,5.0,64,0.00,CLR,,0.00,WeatherDisplay:10.37,2013-02-18 07:02:00,
2013-02-18 02:07:00,13.6,3.7,30.31,SW,227,5.0,5.0,64,0.00,CLR,,0.00,WeatherDisplay:10.37,2013-02-18 07:07:00,
2013-02-18 02:12:00,13.5,3.6,30.31,SW,227,5.0,5.0,64,0.00,CLR,,0.00,WeatherDisplay:10.37,2013-02-18 07:12:00,
2013-02-18 02:17:00,13.5,3.6,30.31,SW,222,3.5,3.5,64,0.00,CLR,,0.00,WeatherDisplay:10.37,2013-02-18 07:17:00,
2013-02-18 02:22:00,13.4,3.5,30.31,SW,217,3.5,3.5,64,0.00,CLR,,0.00,WeatherDisplay:10.37,2013-02-18 07:22:00,
2013-02-18 02:27:00,13.5,3.6,30.31,SSW,213,4.0,4.0,64,0.00,CLR,,0.00,WeatherDisplay:10.37,2013-02-18 07:27:00,
2013-02-18 02:32:00,13.8,3.5,30.30,SW,219,4.0,4.0,63,0.00,CLR,,0.00,WeatherDisplay:10.37,2013-02-18 07:32:00,
2013-02-18 02:37:00,13.8,3.5,30.30,SW,219,3.5,3.5,63,0.00,CLR,,0.00,WeatherDisplay:10.37,2013-02-18 07:37:00,
2013-02-18 02:42:00,13.6,3.3,30.31,SW,218,3.5,3.5,63,0.00,CLR,,0.00,WeatherDisplay:10.37,2013-02-18 07:42:00,
2013-02-18 02:47:00,13.6,3.3,30.30,SW,214,4.0,4.0,63,0.00,CLR,,0.00,WeatherDisplay:10.37,2013-02-18 07:47:00,
2013-02-18 02:52:00,13.6,3.3,30.31,SW,222,4.0,4.0,63,0.00,CLR,,0.00,WeatherDisplay:10.37,2013-02-18 07:52:00,
2013-02-18 02:57:00,13.6,3.3,30.31,SW,219,4.0,4.0,63,0.00,CLR,,0.00,WeatherDisplay:10.37,2013-02-18 07:57:00,
2013-02-18 03:02:00,13.5,3.2,30.31,SW,225,3.5,3.5,63,0.00,CLR,,0.00,WeatherDisplay:10.37,2013-02-18 08:02:00,
2013-02-18 03:07:00,13.4,3.5,30.31,SW,215,3.5,3.5,64,0.00,CLR,,0.00,WeatherDisplay:10.37,2013-02-18 08:07:00,
2013-02-18 03:12:00,13.4,3.5,30.31,SW,225,3.5,3.5,64,0.00,CLR,,0.00,WeatherDisplay:10.37,2013-02-18 08:12:00,
2013-02-18 03:17:00,13.4,3.5,30.31,SW,220,5.0,5.0,64,0.00,CLR,,0.00,WeatherDisplay:10.37,2013-02-18 08:17:00,
2013-02-18 03:22:00,13.4,3.5,30.31,SW,231,4.0,4.0,64,0.00,CLR,,0.00,WeatherDisplay:10.37,2013-02-18 08:22:00,
2013-02-18 03:27:00,13.4,3.5,30.31,SW,231,4.0,4.0,64,0.00,CLR,,0.00,WeatherDisplay:10.37,2013-02-18 08:27:00,
2013-02-18 03:32:00,13.3,3.4,30.31,SW,225,4.6,4.6,64,0.00,CLR,,0.00,WeatherDisplay:10.37,2013-02-18 08:32:00,
2013-02-18 03:37:00,13.1,3.2,30.31,SW,230,4.6,4.6,64,0.00,CLR,,0.00,WeatherDisplay:10.37,2013-02-18 08:37:00,
2013-02-18 03:42:00,13.1,3.2,30.31,WSW,240,4.0,4.0,64,0.00,CLR,,0.00,WeatherDisplay:10.37,2013-02-18 08:42:00,
2013-02-18 03:47:00,12.9,3.0,30.31,SW,223,4.6,4.6,64,0.00,CLR,,0.00,WeatherDisplay:10.37,2013-02-18 08:47:00,
2013-02-18 03:52:00,12.8,3.2,30.31,SW,219,3.5,3.5,65,0.00,CLR,,0.00,WeatherDisplay:10.37,2013-02-18 08:52:00,
2013-02-18 03:57:00,13.4,3.8,30.31,SW,214,4.0,4.0,65,0.00,CLR,,0.00,WeatherDisplay:10.37,2013-02-18 08:57:00,
2013-02-18 04:02:00,13.5,3.6,30.31,SW,217,6.0,6.0,64,0.00,CLR,,0.00,WeatherDisplay:10.37,2013-02-18 09:02:00,
2013-02-18 04:07:00,13.6,3.7,30.31,SW,219,4.0,4.0,64,0.00,CLR,,0.00,WeatherDisplay:10.37,2013-02-18 09:07:00,
2013-02-18 04:12:00,13.6,3.7,30.31,SW,219,4.0,4.0,64,0.00,CLR,,0.00,WeatherDisplay:10.37,2013-02-18 09:12:00,
2013-02-18 04:17:00,13.5,3.6,30.31,SW,215,4.0,4.0,64,0.00,CLR,,0.00,WeatherDisplay:10.37,2013-02-18 09:17:00,
2013-02-18 04:22:00,13.4,3.5,30.31,SSW,213,4.0,4.0,64,0.00,CLR,,0.00,WeatherDisplay:10.37,2013-02-18 09:22:00,
2013-02-18 04:27:00,13.5,3.6,30.31,SSW,207,4.0,4.0,64,0.00,CLR,,0.00,WeatherDisplay:10.37,2013-02-18 09:27:00,
2013-02-18 04:32:00,13.5,3.6,30.31,SW,215,4.0,4.0,64,0.00,CLR,,0.00,WeatherDisplay:10.37,2013-02-18 09:32:00,
2013-02-18 04:37:00,13.5,3.6,30.31,SW,216,4.6,4.6,64,0.00,CLR,,0.00,WeatherDisplay:10.37,2013-02-18 09:37:00,
2013-02-18 04:42:00,13.5,3.6,30.31,SW,219,6.0,6.0,64,0.00,CLR,,0.00,WeatherDisplay:10.37,2013-02-18 09:42:00,
2013-02-18 04:47:00,13.6,3.7,30.31,SSW,212,4.6,4.6,64,0.00,CLR,,0.00,WeatherDisplay:10.37,2013-02-18 09:47:00,
2013-02-18 04:52:00,13.7,3.4,30.31,SW,216,4.0,4.0,63,0.00,CLR,,0.00,WeatherDisplay:10.37,2013-02-18 09:52:00,
2013-02-18 04:57:00,13.6,3.3,30.31,SW,219,4.0,4.0,63,0.00,CLR,,0.00,WeatherDisplay:10.37,2013-02-18 09:57:00,
2013-02-18 05:02:00,13.4,3.5,30.31,SW,215,4.6,4.6,64,0.00,CLR,,0.00,WeatherDisplay:10.37,2013-02-18 10:02:00,
2013-02-18 05:07:00,13.3,3.4,30.32,SW,215,6.0,6.0,64,0.00,CLR,,0.00,WeatherDisplay:10.37,2013-02-18 10:07:00,
2013-02-18 05:12:00,13.4,3.5,30.32,SW,218,5.0,5.0,64,0.00,CLR,,0.00,WeatherDisplay:10.37,2013-02-18 10:12:00,
2013-02-18 05:17:00,13.3,3.4,30.32,SW,214,5.0,5.0,64,0.00,CLR,,0.00,WeatherDisplay:10.37,2013-02-18 10:17:00,
2013-02-18 05:22:00,12.9,3.0,30.32,SW,216,5.0,5.0,64,0.00,CLR,,0.00,WeatherDisplay:10.37,2013-02-18 10:22:00,
2013-02-18 05:27:00,12.7,2.8,30.32,SW,218,4.0,4.0,64,0.00,CLR,,0.00,WeatherDisplay:10.37,2013-02-18 10:27:00,
2013-02-18 05:32:00,12.8,3.2,30.32,SW,218,4.6,4.6,65,0.00,CLR,,0.00,WeatherDisplay:10.37,2013-02-18 10:32:00,
2013-02-18 05:37:00,12.7,3.1,30.32,SSW,210,5.0,5.0,65,0.00,CLR,,0.00,WeatherDisplay:10.37,2013-02-18 10:37:00,
2013-02-18 05:42:00,12.7,3.1,30.32,SW,219,4.0,4.0,65,0.00,CLR,,0.00,WeatherDisplay:10.37,2013-02-18 10:42:00,
2013-02-18 05:47:00,12.6,3.1,30.32,SW,217,5.0,5.0,65,0.00,CLR,,0.00,WeatherDisplay:10.37,2013-02-18 10:47:00,
2013-02-18 05:52:00,12.6,3.1,30.32,SW,220,4.0,4.0,65,0.00,CLR,,0.00,WeatherDisplay:10.37,2013-02-18 10:52:00,
2013-02-18 05:57:00,12.7,3.1,30.32,SW,221,6.0,6.0,65,0.00,CLR,,0.00,WeatherDisplay:10.37,2013-02-18 10:57:00,
2013-02-18 06:02:00,12.8,3.2,30.32,SW,216,5.0,5.0,65,0.00,CLR,,0.00,WeatherDisplay:10.37,2013-02-18 11:02:00,
2013-02-18 06:07:00,12.8,3.2,30.32,SSW,208,6.0,6.0,65,0.00,CLR,,0.00,WeatherDisplay:10.37,2013-02-18 11:07:00,
2013-02-18 06:12:00,12.9,3.3,30.32,SW,229,5.0,5.0,65,0.00,CLR,,0.00,WeatherDisplay:10.37,2013-02-18 11:12:00,
2013-02-18 06:17:00,12.8,3.2,30.33,SW,227,5.0,5.0,65,0.00,CLR,,0.00,WeatherDisplay:10.37,2013-02-18 11:17:00,
2013-02-18 06:22:00,12.8,3.2,30.33,SSW,212,6.0,6.0,65,0.00,CLR,,0.00,WeatherDisplay:10.37,2013-02-18 11:22:00,
2013-02-18 06:27:00,12.8,3.2,30.33,SW,221,6.0,6.0,65,0.00,CLR,,0.00,WeatherDisplay:10.37,2013-02-18 11:27:00,
2013-02-18 06:32:00,12.7,3.1,30.33,SW,217,4.6,4.6,65,0.00,CLR,,0.00,WeatherDisplay:10.37,2013-02-18 11:32:00,
2013-02-18 06:37:00,12.8,3.2,30.33,SW,223,6.0,6.0,65,0.00,CLR,,0.00,WeatherDisplay:10.37,2013-02-18 11:37:00,
2013-02-18 06:42:00,12.7,3.1,30.33,SW,215,4.0,4.0,65,0.00,CLR,,0.00,WeatherDisplay:10.37,2013-02-18 11:42:00,
2013-02-18 06:47:00,12.9,3.7,30.33,SW,225,6.9,6.9,66,0.00,CLR,,0.00,WeatherDisplay:10.37,2013-02-18 11:47:00,
2013-02-18 06:52:00,13.0,3.8,30.33,SSW,207,6.0,6.0,66,0.00,CLR,,0.00,WeatherDisplay:10.37,2013-02-18 11:52:00,
2013-02-18 06:57:00,13.1,3.9,30.33,SSW,211,5.8,5.8,66,0.00,CLR,,0.00,WeatherDisplay:10.37,2013-02-18 11:57:00,
2013-02-18 07:02:00,13.0,3.8,30.33,SSW,207,5.0,5.0,66,0.00,CLR,,0.00,WeatherDisplay:10.37,2013-02-18 12:02:00,
2013-02-18 07:07:00,13.0,3.8,30.33,SSW,209,5.0,5.0,66,0.00,CLR,,0.00,WeatherDisplay:10.37,2013-02-18 12:07:00,
2013-02-18 07:12:00,13.0,3.8,30.33,SW,218,5.0,5.0,66,0.00,CLR,,0.00,WeatherDisplay:10.37,2013-02-18 12:12:00,
2013-02-18 07:17:00,12.6,3.4,30.33,SSW,198,5.8,5.8,66,0.00,CLR,,0.00,WeatherDisplay:10.37,2013-02-18 12:17:00,
2013-02-18 07:22:00,13.0,3.8,30.33,SW,228,4.0,4.0,66,0.00,CLR,,0.00,WeatherDisplay:10.37,2013-02-18 12:22:00,
2013-02-18 07:28:00,12.9,4.0,30.33,South,191,9.2,9.2,67,0.00,CLR,,0.00,WeatherDisplay:10.37,2013-02-18 12:28:00,
2013-02-18 07:33:00,13.6,4.3,30.33,South,188,8.1,8.1,66,0.00,CLR,,0.00,WeatherDisplay:10.37,2013-02-18 12:33:00,
2013-02-18 07:38:00,13.9,4.3,30.33,South,188,11.5,11.5,65,0.00,CLR,,0.00,WeatherDisplay:10.37,2013-02-18 12:38:00,
2013-02-18 07:43:00,13.8,3.9,30.33,South,188,11.5,11.5,64,0.00,CLR,,0.00,WeatherDisplay:10.37,2013-02-18 12:43:00,
2013-02-18 07:48:00,13.8,3.9,30.33,SSW,194,11.5,11.5,64,0.00,CLR,,0.00,WeatherDisplay:10.37,2013-02-18 12:48:00,
2013-02-18 07:53:00,13.8,3.9,30.33,SSW,200,12.0,12.0,64,0.00,CLR,,0.00,WeatherDisplay:10.37,2013-02-18 12:53:00,
2013-02-18 07:58:00,13.6,3.7,30.33,SSW,196,10.4,10.4,64,0.00,CLR,,0.00,WeatherDisplay:10.37,2013-02-18 12:58:00,
2013-02-18 08:03:00,13.7,4.1,30.34,South,186,12.0,12.0,65,0.00,CLR,,0.00,WeatherDisplay:10.37,2013-02-18 13:03:00,
2013-02-18 08:08:00,13.9,4.0,30.34,South,190,11.5,11.5,64,0.00,CLR,,0.00,WeatherDisplay:10.37,2013-02-18 13:08:00,
2013-02-18 08:13:00,14.1,4.1,30.34,SSW,196,11.5,11.5,64,0.00,CLR,,0.00,WeatherDisplay:10.37,2013-02-18 13:13:00,
2013-02-18 08:18:00,14.3,4.3,30.34,SSW,203,11.5,11.5,64,0.00,CLR,,0.00,WeatherDisplay:10.37,2013-02-18 13:18:00,
2013-02-18 08:23:00,14.4,4.4,30.33,SSW,196,11.5,11.5,64,0.00,CLR,,0.00,WeatherDisplay:10.37,2013-02-18 13:23:00,
2013-02-18 08:28:00,14.8,4.8,30.33,South,182,12.0,12.0,64,0.00,CLR,,0.00,WeatherDisplay:10.37,2013-02-18 13:28:00,
2013-02-18 08:33:00,15.0,4.7,30.33,SSW,194,11.5,11.5,63,0.00,CLR,,0.00,WeatherDisplay:10.37,2013-02-18 13:33:00,
2013-02-18 08:38:00,15.2,4.9,30.33,South,187,11.5,11.5,63,0.00,CLR,,0.00,WeatherDisplay:10.37,2013-02-18 13:38:00,
2013-02-18 08:43:00,15.2,4.9,30.33,SSW,205,11.5,11.5,63,0.00,CLR,,0.00,WeatherDisplay:10.37,2013-02-18 13:43:00,
2013-02-18 08:48:00,15.5,5.5,30.33,SSW,194,8.1,8.1,64,0.00,CLR,,0.00,WeatherDisplay:10.37,2013-02-18 13:48:00,
2013-02-18 08:54:00,16.1,6.1,30.33,SSW,200,10.4,10.4,64,0.00,CLR,,0.00,WeatherDisplay:10.37,2013-02-18 13:54:00,
2013-02-18 08:59:00,16.6,6.2,30.33,SSW,207,9.2,9.2,63,0.00,CLR,,0.00,WeatherDisplay:10.37,2013-02-18 13:59:00,
2013-02-18 09:04:00,17.2,6.4,30.33,South,184,10.0,10.0,62,0.00,CLR,,0.00,WeatherDisplay:10.37,2013-02-18 14:04:00,
2013-02-18 09:09:00,17.7,6.9,30.33,SSW,205,10.4,10.4,62,0.00,CLR,,0.00,WeatherDisplay:10.37,2013-02-18 14:09:00,
2013-02-18 09:14:00,18.4,7.5,30.33,South,186,12.0,12.0,62,0.00,CLR,,0.00,WeatherDisplay:10.37,2013-02-18 14:14:00,
2013-02-18 09:19:00,18.8,7.6,30.32,South,174,13.0,13.0,61,0.00,CLR,,0.00,WeatherDisplay:10.37,2013-02-18 14:19:00,
2013-02-18 09:24:00,19.1,7.5,30.32,SW,214,11.5,11.5,60,0.00,CLR,,0.00,WeatherDisplay:10.37,2013-02-18 14:24:00,
2013-02-18 09:29:00,19.5,7.5,30.32,South,191,17.3,17.3,59,0.00,CLR,,0.00,WeatherDisplay:10.37,2013-02-18 14:29:00,
2013-02-18 09:34:00,19.7,7.7,30.33,SSW,205,18.4,18.4,59,0.00,CLR,,0.00,WeatherDisplay:10.37,2013-02-18 14:34:00,
2013-02-18 09:39:00,20.4,8.3,30.32,SSW,210,13.0,13.0,59,0.00,CLR,,0.00,WeatherDisplay:10.37,2013-02-18 14:39:00,
2013-02-18 09:44:00,20.7,8.2,30.33,SW,216,16.1,16.1,58,0.00,CLR,,0.00,WeatherDisplay:10.37,2013-02-18 14:44:00,
2013-02-18 09:49:00,21.0,8.5,30.33,SSW,211,13.8,13.8,58,0.00,CLR,,0.00,WeatherDisplay:10.37,2013-02-18 14:49:00,
2013-02-18 09:54:00,21.3,8.8,30.32,SSW,194,14.0,14.0,58,0.00,CLR,,0.00,WeatherDisplay:10.37,2013-02-18 14:54:00,
2013-02-18 09:59:00,21.8,9.3,30.32,SSW,203,13.0,13.0,58,0.00,CLR,,0.00,WeatherDisplay:10.37,2013-02-18 14:59:00,
2013-02-18 10:04:00,22.0,9.1,30.31,SSW,198,9.0,16.0,57,0.00,CLR,CLR,0.00,WeatherDisplay:10.37,2013-02-18 15:04:00,
2013-02-18 10:09:00,22.3,9.3,30.31,SSW,192,8.0,14.0,57,0.00,CLR,CLR,0.00,WeatherDisplay:10.37,2013-02-18 15:09:00,
2013-02-18 10:14:00,22.7,9.7,30.31,SSW,194,7.0,14.0,57,0.00,CLR,CLR,0.00,WeatherDisplay:10.37,2013-02-18 15:14:00,
2013-02-18 10:19:00,22.9,9.5,30.31,SSW,193,9.0,14.0,56,0.00,CLR,CLR,0.00,WeatherDisplay:10.37,2013-02-18 15:19:00,
2013-02-18 10:24:00,23.5,10.5,30.31,South,189,8.0,12.0,57,0.00,CLR,CLR,0.00,WeatherDisplay:10.37,2013-02-18 15:24:00,
2013-02-18 10:29:00,23.8,10.7,30.31,SSW,193,10.0,14.0,57,0.00,CLR,CLR,0.00,WeatherDisplay:10.37,2013-02-18 15:29:00,
2013-02-18 10:34:00,24.1,10.6,30.30,SSW,194,10.0,13.0,56,0.00,CLR,CLR,0.00,WeatherDisplay:10.37,2013-02-18 15:34:00,
2013-02-18 10:39:00,24.8,11.7,30.30,SSW,194,8.0,14.0,57,0.00,CLR,CLR,0.00,WeatherDisplay:10.37,2013-02-18 15:39:00,
2013-02-18 10:44:00,25.0,11.5,30.30,SSW,200,12.0,17.0,56,0.00,CLR,CLR,0.00,WeatherDisplay:10.37,2013-02-18 15:44:00,
2013-02-18 10:49:00,25.0,11.5,30.30,SSW,199,15.0,18.0,56,0.00,CLR,CLR,0.00,WeatherDisplay:10.37,2013-02-18 15:49:00,
2013-02-18 10:54:00,25.0,11.5,30.30,SSW,197,9.0,17.0,56,0.00,CLR,CLR,0.00,WeatherDisplay:10.37,2013-02-18 15:54:00,
2013-02-18 10:59:00,25.7,12.1,30.30,SSW,193,10.0,17.0,56,0.00,CLR,CLR,0.00,WeatherDisplay:10.37,2013-02-18 15:59:00,
2013-02-18 11:04:00,25.9,11.9,30.29,South,191,9.0,17.0,55,0.00,CLR,CLR,0.00,WeatherDisplay:10.37,2013-02-18 16:04:00,
2013-02-18 11:09:00,26.3,11.9,30.29,SSW,193,10.0,14.0,54,0.00,CLR,CLR,0.00,WeatherDisplay:10.37,2013-02-18 16:09:00,
2013-02-18 11:14:00,26.9,12.5,30.29,South,191,12.0,16.0,54,0.00,CLR,CLR,0.00,WeatherDisplay:10.37,2013-02-18 16:14:00,
2013-02-18 11:19:00,27.4,12.9,30.29,SSW,194,8.0,15.0,54,0.00,CLR,CLR,0.00,WeatherDisplay:10.37,2013-02-18 16:19:00,
2013-02-18 11:24:00,27.7,13.2,30.28,SSW,194,8.0,14.0,54,0.00,CLR,CLR,0.00,WeatherDisplay:10.37,2013-02-18 16:24:00,
2013-02-18 11:29:00,28.1,13.2,30.28,SSW,195,9.0,14.0,53,0.00,CLR,CLR,0.00,WeatherDisplay:10.37,2013-02-18 16:29:00,
2013-02-18 11:34:00,28.7,13.7,30.28,SSW,195,7.0,12.0,53,0.00,CLR,CLR,0.00,WeatherDisplay:10.37,2013-02-18 16:34:00,
2013-02-18 11:39:00,28.9,13.5,30.28,SSW,193,9.0,13.0,52,0.00,CLR,CLR,0.00,WeatherDisplay:10.37,2013-02-18 16:39:00,
2013-02-18 11:44:00,29.2,13.7,30.27,South,189,3.0,9.0,52,0.00,CLR,CLR,0.00,WeatherDisplay:10.37,2013-02-18 16:44:00,
2013-02-18 11:49:00,29.4,14.0,30.27,South,183,6.0,9.0,52,0.00,CLR,CLR,0.00,WeatherDisplay:10.37,2013-02-18 16:49:00,
2013-02-18 11:54:00,29.9,14.3,30.27,SSW,193,12.0,16.0,52,0.00,CLR,CLR,0.00,WeatherDisplay:10.37,2013-02-18 16:54:00,
2013-02-18 11:59:00,29.8,14.3,30.27,South,191,9.0,14.0,52,0.00,CLR,CLR,0.00,WeatherDisplay:10.37,2013-02-18 16:59:00,
2013-02-18 12:04:00,30.2,14.7,30.26,South,190,12.0,17.0,52,0.00,CLR,CLR,0.00,WeatherDisplay:10.37,2013-02-18 17:04:00,
2013-02-18 12:09:00,30.6,14.6,30.26,SSW,195,7.0,15.0,51,0.00,CLR,CLR,0.00,WeatherDisplay:10.37,2013-02-18 17:09:00,
2013-02-18 12:14:00,30.5,14.5,30.25,South,189,9.0,17.0,51,0.00,CLR,CLR,0.00,WeatherDisplay:10.37,2013-02-18 17:14:00,
2013-02-18 12:19:00,31.1,15.9,30.25,SSW,200,12.0,12.0,53,0.00,CLR,,0.00,WeatherDisplay:10.37,2013-02-18 17:19:00,
2013-02-18 12:24:00,31.3,16.1,30.25,SSW,196,15.0,15.0,53,0.00,CLR,,0.00,WeatherDisplay:10.37,2013-02-18 17:24:00,
2013-02-18 12:29:00,31.7,16.1,30.24,SSW,195,13.0,13.0,52,0.00,CLR,,0.00,WeatherDisplay:10.37,2013-02-18 17:29:00,
2013-02-18 12:34:00,32.2,16.5,30.24,SSW,202,15.0,15.0,52,0.00,CLR,,0.00,WeatherDisplay:10.37,2013-02-18 17:34:00,
2013-02-18 12:39:00,32.3,16.6,30.24,SSW,197,11.5,11.5,52,0.00,CLR,,0.00,WeatherDisplay:10.37,2013-02-18 17:39:00,
2013-02-18 12:44:00,32.5,15.9,30.23,South,184,9.2,9.2,50,0.00,CLR,,0.00,WeatherDisplay:10.37,2013-02-18 17:44:00,
2013-02-18 12:49:00,33.0,16.8,30.23,SSE,167,13.8,13.8,51,0.00,CLR,,0.00,WeatherDisplay:10.37,2013-02-18 17:49:00,
2013-02-18 12:54:00,33.2,16.5,30.23,South,183,13.0,13.0,50,0.00,CLR,,0.00,WeatherDisplay:10.37,2013-02-18 17:54:00,
2013-02-18 12:59:00,33.7,17.5,30.22,SSW,209,14.0,14.0,51,0.00,CLR,,0.00,WeatherDisplay:10.37,2013-02-18 17:59:00,
2013-02-18 13:04:00,34.1,16.9,30.22,SSE,162,14.0,14.0,49,0.00,CLR,,0.00,WeatherDisplay:10.37,2013-02-18 18:04:00,
2013-02-18 13:09:00,34.2,17.0,30.21,South,173,14.0,14.0,49,0.00,CLR,,0.00,WeatherDisplay:10.37,2013-02-18 18:09:00,
2013-02-18 13:14:00,34.7,17.9,30.21,SSW,192,16.1,16.1,50,0.00,CLR,,0.00,WeatherDisplay:10.37,2013-02-18 18:14:00,
2013-02-18 13:19:00,35.1,17.8,30.20,South,184,15.0,15.0,49,0.00,CLR,,0.00,WeatherDisplay:10.37,2013-02-18 18:19:00,
2013-02-18 13:24:00,35.2,17.4,30.20,South,190,17.3,17.3,48,0.00,CLR,,0.00,WeatherDisplay:10.37,2013-02-18 18:24:00,
2013-02-18 13:29:00,35.8,18.0,30.19,South,183,8.1,8.1,48,0.00,CLR,,0.00,WeatherDisplay:10.37,2013-02-18 18:29:00,
2013-02-18 13:34:00,35.9,18.6,30.19,SSW,198,13.0,13.0,49,0.00,CLR,,0.00,WeatherDisplay:10.37,2013-02-18 18:34:00,
2013-02-18 13:40:00,36.0,17.7,30.18,SSW,203,18.4,18.4,47,0.00,CLR,,0.00,WeatherDisplay:10.37,2013-02-18 18:40:00,
2013-02-18 13:45:00,36.7,18.3,30.18,SSW,192,12.7,12.7,47,0.00,CLR,,0.00,WeatherDisplay:10.37,2013-02-18 18:45:00,
2013-02-18 13:50:00,37.1,19.7,30.18,SSW,193,14.0,14.0,49,0.00,CLR,,0.00,WeatherDisplay:10.37,2013-02-18 18:50:00,
2013-02-18 13:55:00,37.5,20.1,30.17,SSW,205,8.1,8.1,49,0.00,CLR,,0.00,WeatherDisplay:10.37,2013-02-18 18:55:00,
2013-02-18 14:00:00,38.2,20.2,30.17,SSW,194,10.4,10.4,48,0.00,CLR,,0.00,WeatherDisplay:10.37,2013-02-18 19:00:00,
2013-02-18 14:05:00,38.6,20.6,30.17,SSW,203,10.4,10.4,48,0.00,CLR,,0.00,WeatherDisplay:10.37,2013-02-18 19:05:00,
2013-02-18 14:10:00,38.8,20.3,30.16,SSW,196,13.8,13.8,47,0.00,CLR,,0.00,WeatherDisplay:10.37,2013-02-18 19:10:00,
2013-02-18 14:15:00,39.1,20.0,30.16,South,187,13.8,13.8,46,0.00,CLR,,0.00,WeatherDisplay:10.37,2013-02-18 19:15:00,
2013-02-18 14:20:00,39.3,21.2,30.16,SSW,209,12.0,12.0,48,0.00,CLR,,0.00,WeatherDisplay:10.37,2013-02-18 19:20:00,
2013-02-18 14:25:00,39.7,21.6,30.16,South,184,13.0,13.0,48,0.00,CLR,,0.00,WeatherDisplay:10.37,2013-02-18 19:25:00,
2013-02-18 14:30:00,40.1,20.4,30.15,SSW,203,10.4,10.4,45,0.00,CLR,,0.00,WeatherDisplay:10.37,2013-02-18 19:30:00,
2013-02-18 14:35:00,40.4,21.2,30.15,SSW,202,11.5,11.5,46,0.00,CLR,,0.00,WeatherDisplay:10.37,2013-02-18 19:35:00,
2013-02-18 14:40:00,40.7,21.5,30.15,SSW,196,19.0,19.0,46,0.00,CLR,,0.00,WeatherDisplay:10.37,2013-02-18 19:40:00,
2013-02-18 14:45:00,40.6,20.9,30.14,SSW,195,15.0,15.0,45,0.00,CLR,,0.00,WeatherDisplay:10.37,2013-02-18 19:45:00,
2013-02-18 14:50:00,40.7,22.0,30.14,SSW,205,10.4,10.4,47,0.00,CLR,,0.00,WeatherDisplay:10.37,2013-02-18 19:50:00,
2013-02-18 14:55:00,41.1,23.4,30.14,SSW,194,10.0,10.0,49,0.00,CLR,,0.00,WeatherDisplay:10.37,2013-02-18 19:55:00,
2013-02-18 15:00:00,41.3,22.1,30.14,SSW,207,16.1,16.1,46,0.00,CLR,,0.00,WeatherDisplay:10.37,2013-02-18 20:00:00,
2013-02-18 15:05:00,41.5,22.7,30.14,SSW,202,13.0,13.0,47,0.00,CLR,,0.00,WeatherDisplay:10.37,2013-02-18 20:05:00,
2013-02-18 15:10:00,41.6,23.3,30.13,SSW,209,18.0,18.0,48,0.00,CLR,,0.00,WeatherDisplay:10.37,2013-02-18 20:10:00,
2013-02-18 15:15:00,41.6,22.3,30.13,SSW,192,17.0,17.0,46,0.00,CLR,,0.00,WeatherDisplay:10.37,2013-02-18 20:15:00,
2013-02-18 15:20:00,41.6,22.3,30.13,SW,215,17.3,17.3,46,0.00,CLR,,0.00,WeatherDisplay:10.37,2013-02-18 20:20:00,
2013-02-18 15:25:00,41.7,22.4,30.13,South,181,15.0,15.0,46,0.00,CLR,,0.00,WeatherDisplay:10.37,2013-02-18 20:25:00,
2013-02-18 15:30:00,41.8,23.0,30.12,SSW,201,15.0,15.0,47,0.00,CLR,,0.00,WeatherDisplay:10.37,2013-02-18 20:30:00,
2013-02-18 15:35:00,42.0,23.2,30.12,SSW,202,12.0,12.0,47,0.00,CLR,,0.00,WeatherDisplay:10.37,2013-02-18 20:35:00,
2013-02-18 15:40:00,42.4,24.1,30.12,SSW,198,13.8,13.8,48,0.00,CLR,,0.00,WeatherDisplay:10.37,2013-02-18 20:40:00,
2013-02-18 15:45:00,42.7,24.4,30.12,South,187,17.0,17.0,48,0.00,CLR,,0.00,WeatherDisplay:10.37,2013-02-18 20:45:00,
2013-02-18 15:50:00,42.8,23.9,30.12,SW,223,12.0,12.0,47,0.00,CLR,,0.00,WeatherDisplay:10.37,2013-02-18 20:50:00,
2013-02-18 15:55:00,42.8,23.4,30.12,SSW,206,17.3,17.3,46,0.00,CLR,,0.00,WeatherDisplay:10.37,2013-02-18 20:55:00,
2013-02-18 16:00:00,42.7,23.8,30.12,South,191,15.0,15.0,47,0.00,CLR,,0.00,WeatherDisplay:10.37,2013-02-18 21:00:00,
2013-02-18 16:05:00,42.6,24.3,30.11,South,176,17.0,17.0,48,0.00,CLR,,0.00,WeatherDisplay:10.37,2013-02-18 21:05:00,
2013-02-18 16:10:00,42.7,24.4,30.11,South,184,12.0,12.0,48,0.00,CLR,,0.00,WeatherDisplay:10.37,2013-02-18 21:10:00,
2013-02-18 16:15:00,42.8,24.9,30.11,South,188,12.0,12.0,49,0.00,CLR,,0.00,WeatherDisplay:10.37,2013-02-18 21:15:00,
2013-02-18 16:20:00,42.9,24.0,30.11,SW,233,15.0,15.0,47,0.00,CLR,,0.00,WeatherDisplay:10.37,2013-02-18 21:20:00,
2013-02-18 16:25:00,42.9,24.0,30.11,SSW,192,13.8,13.8,47,0.00,CLR,,0.00,WeatherDisplay:10.37,2013-02-18 21:25:00,
2013-02-18 16:30:00,42.9,24.5,30.11,SSW,209,10.4,10.4,48,0.00,CLR,,0.00,WeatherDisplay:10.37,2013-02-18 21:30:00,
2013-02-18 16:35:00,43.1,24.7,30.11,SSW,209,10.4,10.4,48,0.00,CLR,,0.00,WeatherDisplay:10.37,2013-02-18 21:35:00,
2013-02-18 16:40:00,43.1,25.7,30.10,SSW,194,7.0,7.0,50,0.00,CLR,,0.00,WeatherDisplay:10.37,2013-02-18 21:40:00,
2013-02-18 16:46:00,43.1,24.7,30.10,SSW,205,9.2,9.2,48,0.00,CLR,,0.00,WeatherDisplay:10.37,2013-02-18 21:46:00,
2013-02-18 16:51:00,43.2,25.3,30.10,SSW,192,9.2,9.2,49,0.00,CLR,,0.00,WeatherDisplay:10.37,2013-02-18 21:51:00,
2013-02-18 16:56:00,43.1,24.7,30.09,SSW,192,9.2,9.2,48,0.00,CLR,,0.00,WeatherDisplay:10.37,2013-02-18 21:56:00,
2013-02-18 17:01:00,43.2,24.8,30.09,SSW,199,10.0,10.0,48,0.00,CLR,,0.00,WeatherDisplay:10.37,2013-02-18 22:01:00,
2013-02-18 17:06:00,43.4,25.0,30.09,SSW,202,9.2,9.2,48,0.00,CLR,,0.00,WeatherDisplay:10.37,2013-02-18 22:06:00,
2013-02-18 17:11:00,43.3,24.9,30.09,SSW,200,12.0,12.0,48,0.00,CLR,,0.00,WeatherDisplay:10.37,2013-02-18 22:11:00,
2013-02-18 17:16:00,43.3,25.4,30.08,SSW,201,9.2,9.2,49,0.00,CLR,,0.00,WeatherDisplay:10.37,2013-02-18 22:16:00,
2013-02-18 17:21:00,43.2,25.3,30.09,SSW,206,8.1,8.1,49,0.00,CLR,,0.00,WeatherDisplay:10.37,2013-02-18 22:21:00,
2013-02-18 17:26:00,43.1,25.2,30.08,SSW,194,7.0,7.0,49,0.00,CLR,,0.00,WeatherDisplay:10.37,2013-02-18 22:26:00,
2013-02-18 17:31:00,43.1,25.2,30.08,South,186,10.4,10.4,49,0.00,CLR,,0.00,WeatherDisplay:10.37,2013-02-18 22:31:00,
2013-02-18 17:36:00,43.1,25.2,30.08,SSW,198,8.1,8.1,49,0.00,CLR,,0.00,WeatherDisplay:10.37,2013-02-18 22:36:00,
2013-02-18 17:41:00,42.9,25.5,30.08,South,188,10.0,10.0,50,0.00,CLR,,0.00,WeatherDisplay:10.37,2013-02-18 22:41:00,
2013-02-18 17:46:00,43.1,25.2,30.08,South,182,10.4,10.4,49,0.00,CLR,,0.00,WeatherDisplay:10.37,2013-02-18 22:46:00,
2013-02-18 17:51:00,43.2,25.3,30.07,South,186,11.0,11.0,49,0.00,CLR,,0.00,WeatherDisplay:10.37,2013-02-18 22:51:00,
2013-02-18 17:56:00,43.3,24.9,30.07,South,174,10.4,10.4,48,0.00,CLR,,0.00,WeatherDisplay:10.37,2013-02-18 22:56:00,
2013-02-18 18:01:00,43.1,25.2,30.07,SSW,194,11.5,11.5,49,0.00,CLR,,0.00,WeatherDisplay:10.37,2013-02-18 23:01:00,
2013-02-18 18:06:00,42.9,25.0,30.06,South,186,11.5,11.5,49,0.00,CLR,,0.00,WeatherDisplay:10.37,2013-02-18 23:06:00,
2013-02-18 18:11:00,42.8,25.4,30.06,SSW,195,11.5,11.5,50,0.00,CLR,,0.00,WeatherDisplay:10.37,2013-02-18 23:11:00,
2013-02-18 18:16:00,42.7,25.3,30.06,SSW,192,11.5,11.5,50,0.00,CLR,,0.00,WeatherDisplay:10.37,2013-02-18 23:16:00,
2013-02-18 18:21:00,42.6,25.2,30.06,South,184,10.4,10.4,50,0.00,CLR,,0.00,WeatherDisplay:10.37,2013-02-18 23:21:00,
2013-02-18 18:26:00,42.6,25.2,30.06,South,186,11.5,11.5,50,0.00,CLR,,0.00,WeatherDisplay:10.37,2013-02-18 23:26:00,
2013-02-18 18:31:00,42.8,25.4,30.06,SSW,192,11.5,11.5,50,0.00,CLR,,0.00,WeatherDisplay:10.37,2013-02-18 23:31:00,
2013-02-18 18:36:00,42.9,25.5,30.05,SSW,193,13.0,13.0,50,0.00,CLR,,0.00,WeatherDisplay:10.37,2013-02-18 23:36:00,
2013-02-18 18:41:00,42.9,25.5,30.05,South,176,13.0,13.0,50,0.00,CLR,,0.00,WeatherDisplay:10.37,2013-02-18 23:41:00,
2013-02-18 18:46:00,42.9,25.5,30.05,SSW,197,10.4,10.4,50,0.00,CLR,,0.00,WeatherDisplay:10.37,2013-02-18 23:46:00,
2013-02-18 18:51:00,42.8,25.4,30.05,South,186,11.5,11.5,50,0.00,CLR,,0.00,WeatherDisplay:10.37,2013-02-18 23:51:00,
2013-02-18 18:56:00,42.8,25.4,30.05,SSW,192,12.0,12.0,50,0.00,CLR,,0.00,WeatherDisplay:10.37,2013-02-18 23:56:00,
2013-02-18 19:01:00,42.7,25.3,30.05,SSW,195,11.5,11.5,50,0.00,CLR,,0.00,WeatherDisplay:10.37,2013-02-19 00:01:00,
2013-02-18 19:06:00,42.7,25.8,30.05,South,190,10.4,10.4,51,0.00,CLR,,0.00,WeatherDisplay:10.37,2013-02-19 00:06:00,
2013-02-18 19:11:00,42.9,26.0,30.05,SSW,198,12.0,12.0,51,0.00,CLR,,0.00,WeatherDisplay:10.37,2013-02-19 00:11:00,
2013-02-18 19:16:00,43.1,25.7,30.05,South,185,10.4,10.4,50,0.00,CLR,,0.00,WeatherDisplay:10.37,2013-02-19 00:16:00,
2013-02-18 19:21:00,43.1,25.7,30.04,South,186,11.5,11.5,50,0.00,CLR,,0.00,WeatherDisplay:10.37,2013-02-19 00:21:00,
2013-02-18 19:26:00,43.2,25.8,30.04,SSW,192,11.5,11.5,50,0.00,CLR,,0.00,WeatherDisplay:10.37,2013-02-19 00:26:00,
2013-02-18 19:31:00,43.1,25.7,30.04,South,182,11.5,11.5,50,0.00,CLR,,0.00,WeatherDisplay:10.37,2013-02-19 00:31:00,
2013-02-18 19:36:00,43.0,26.1,30.03,South,188,13.0,13.0,51,0.00,CLR,,0.00,WeatherDisplay:10.37,2013-02-19 00:36:00,
2013-02-18 19:41:00,43.0,26.1,30.03,South,190,12.0,12.0,51,0.00,CLR,,0.00,WeatherDisplay:10.37,2013-02-19 00:41:00,
2013-02-18 19:46:00,42.9,26.0,30.03,South,191,12.0,12.0,51,0.00,CLR,,0.00,WeatherDisplay:10.37,2013-02-19 00:46:00,
2013-02-18 19:51:00,42.8,25.9,30.03,South,189,13.0,13.0,51,0.00,CLR,,0.00,WeatherDisplay:10.37,2013-02-19 00:51:00,
2013-02-18 19:56:00,42.7,26.3,30.02,South,188,14.0,14.0,52,0.00,CLR,,0.00,WeatherDisplay:10.37,2013-02-19 00:56:00,
2013-02-18 20:01:00,42.7,26.3,30.02,SSW,192,13.0,13.0,52,0.00,CLR,,0.00,WeatherDisplay:10.37,2013-02-19 01:01:00,
2013-02-18 20:06:00,42.5,26.1,30.02,South,190,15.0,15.0,52,0.00,CLR,,0.00,WeatherDisplay:10.37,2013-02-19 01:06:00,
2013-02-18 20:12:00,42.4,26.5,30.02,South,189,14.0,14.0,53,0.00,CLR,,0.00,WeatherDisplay:10.37,2013-02-19 01:12:00,
2013-02-18 20:17:00,42.2,26.3,30.01,SSW,202,13.0,13.0,53,0.00,CLR,,0.00,WeatherDisplay:10.37,2013-02-19 01:17:00,
2013-02-18 20:22:00,42.3,26.8,30.01,South,188,16.0,16.0,54,0.00,CLR,,0.00,WeatherDisplay:10.37,2013-02-19 01:22:00,
2013-02-18 20:27:00,42.3,26.8,30.01,South,190,14.0,14.0,54,0.00,CLR,,0.00,WeatherDisplay:10.37,2013-02-19 01:27:00,
2013-02-18 20:32:00,42.3,26.8,30.01,South,189,14.0,14.0,54,0.00,CLR,,0.00,WeatherDisplay:10.37,2013-02-19 01:32:00,
2013-02-18 20:37:00,42.2,27.2,30.00,South,189,14.0,14.0,55,0.00,CLR,,0.00,WeatherDisplay:10.37,2013-02-19 01:37:00,
2013-02-18 20:42:00,42.1,27.1,30.00,SSW,199,15.0,15.0,55,0.00,CLR,,0.00,WeatherDisplay:10.37,2013-02-19 01:42:00,
2013-02-18 20:47:00,42.0,27.0,30.00,South,182,15.0,15.0,55,0.00,CLR,,0.00,WeatherDisplay:10.37,2013-02-19 01:47:00,
2013-02-18 20:52:00,42.0,27.0,29.99,SSW,196,15.0,15.0,55,0.00,CLR,,0.00,WeatherDisplay:10.37,2013-02-19 01:52:00,
2013-02-18 20:58:00,42.0,27.4,30.00,South,191,15.0,15.0,56,0.00,CLR,,0.00,WeatherDisplay:10.37,2013-02-19 01:58:00,
2013-02-18 21:03:00,42.0,27.4,29.99,SSW,207,15.0,15.0,56,0.00,CLR,,0.00,WeatherDisplay:10.37,2013-02-19 02:03:00,
2013-02-18 21:08:00,42.2,27.6,29.99,SSW,204,17.3,17.3,56,0.00,CLR,,0.00,WeatherDisplay:10.37,2013-02-19 02:08:00,
2013-02-18 21:14:00,42.1,27.5,29.99,SSW,204,14.0,14.0,56,0.00,CLR,,0.00,WeatherDisplay:10.37,2013-02-19 02:14:00,
2013-02-18 21:19:00,42.3,27.7,29.99,SSW,198,14.0,14.0,56,0.00,CLR,,0.00,WeatherDisplay:10.37,2013-02-19 02:19:00,
2013-02-18 21:24:00,42.5,28.3,29.99,SSW,205,13.0,15.0,57,0.00,CLR,CLR,0.00,WeatherDisplay:10.37,2013-02-19 02:24:00,
2013-02-18 21:29:00,42.7,28.5,29.98,SSW,206,13.0,17.0,57,0.00,CLR,CLR,0.00,WeatherDisplay:10.37,2013-02-19 02:29:00,
2013-02-18 21:34:00,42.8,28.2,29.98,SSW,206,12.0,17.0,56,0.00,CLR,CLR,0.00,WeatherDisplay:10.37,2013-02-19 02:34:00,
2013-02-18 21:39:00,42.9,28.7,29.98,SSW,201,15.0,15.0,57,0.00,CLR,,0.00,WeatherDisplay:10.37,2013-02-19 02:39:00,
2013-02-18 21:44:00,43.0,28.8,29.98,SW,221,16.1,16.1,57,0.00,CLR,,0.00,WeatherDisplay:10.37,2013-02-19 02:44:00,
2013-02-18 21:49:00,43.2,29.0,29.98,SSW,211,15.0,15.0,57,0.00,CLR,,0.00,WeatherDisplay:10.37,2013-02-19 02:49:00,
2013-02-18 21:54:00,43.3,29.1,29.98,SSW,205,16.1,16.1,57,0.00,CLR,,0.00,WeatherDisplay:10.37,2013-02-19 02:54:00,
2013-02-18 21:59:00,43.3,29.1,29.98,SSW,200,16.1,16.1,57,0.00,CLR,,0.00,WeatherDisplay:10.37,2013-02-19 02:59:00,
2013-02-18 22:04:00,43.3,29.1,29.97,SSW,202,17.3,17.3,57,0.00,CLR,,0.00,WeatherDisplay:10.37,2013-02-19 03:04:00,
2013-02-18 22:09:00,43.4,29.2,29.97,SSW,205,18.0,18.0,57,0.00,CLR,,0.00,WeatherDisplay:10.37,2013-02-19 03:09:00,
2013-02-18 22:15:00,43.5,29.3,29.97,SSW,202,17.3,17.3,57,0.00,CLR,,0.00,WeatherDisplay:10.37,2013-02-19 03:15:00,
2013-02-18 22:20:00,43.5,29.3,29.97,SSW,194,17.3,17.3,57,0.00,CLR,,0.00,WeatherDisplay:10.37,2013-02-19 03:20:00,
2013-02-18 22:25:00,43.4,29.2,29.96,SSW,205,17.3,17.3,57,0.00,CLR,,0.00,WeatherDisplay:10.37,2013-02-19 03:25:00,
2013-02-18 22:30:00,43.6,29.4,29.96,SSW,204,19.6,19.6,57,0.00,CLR,,0.00,WeatherDisplay:10.37,2013-02-19 03:30:00,
2013-02-18 22:35:00,43.6,29.4,29.96,SW,223,14.0,14.0,57,0.00,CLR,,0.00,WeatherDisplay:10.37,2013-02-19 03:35:00,
2013-02-18 22:40:00,43.4,29.2,29.95,South,181,17.3,17.3,57,0.00,CLR,,0.00,WeatherDisplay:10.37,2013-02-19 03:40:00,
2013-02-18 22:45:00,43.5,29.3,29.95,SW,216,15.0,15.0,57,0.00,CLR,,0.00,WeatherDisplay:10.37,2013-02-19 03:45:00,
2013-02-18 22:50:00,43.6,29.4,29.95,SSW,211,16.1,16.1,57,0.00,CLR,,0.00,WeatherDisplay:10.37,2013-02-19 03:50:00,
2013-02-18 22:55:00,43.4,29.2,29.94,SSW,198,13.0,13.0,57,0.00,CLR,,0.00,WeatherDisplay:10.37,2013-02-19 03:55:00,
2013-02-18 23:00:00,43.4,29.2,29.94,SSW,202,12.0,12.0,57,0.00,CLR,,0.00,WeatherDisplay:10.37,2013-02-19 04:00:00,
2013-02-18 23:05:00,43.3,29.5,29.94,SSW,204,12.7,12.7,58,0.00,CLR,,0.00,WeatherDisplay:10.37,2013-02-19 04:05:00,
2013-02-18 23:10:00,43.3,29.5,29.93,SSW,196,11.5,11.5,58,0.00,CLR,,0.00,WeatherDisplay:10.37,2013-02-19 04:10:00,
2013-02-18 23:15:00,43.4,29.2,29.93,SSW,211,15.0,15.0,57,0.00,CLR,,0.00,WeatherDisplay:10.37,2013-02-19 04:15:00,
2013-02-18 23:21:00,43.3,29.5,29.92,SSW,203,15.0,15.0,58,0.00,CLR,,0.00,WeatherDisplay:10.37,2013-02-19 04:21:00,
2013-02-18 23:26:00,43.2,29.4,29.92,SSW,195,16.1,16.1,58,0.00,CLR,,0.00,WeatherDisplay:10.37,2013-02-19 04:26:00,
2013-02-18 23:31:00,43.0,29.2,29.92,SSW,192,17.0,17.0,58,0.00,CLR,,0.00,WeatherDisplay:10.37,2013-02-19 04:31:00,
2013-02-18 23:36:00,43.1,29.3,29.91,SSW,207,13.0,13.0,58,0.00,CLR,,0.00,WeatherDisplay:10.37,2013-02-19 04:36:00,
2013-02-18 23:41:00,43.0,29.2,29.91,SSW,196,16.1,16.1,58,0.00,CLR,,0.00,WeatherDisplay:10.37,2013-02-19 04:41:00,
2013-02-18 23:47:00,42.9,29.1,29.91,South,191,14.0,14.0,58,0.00,CLR,,0.00,WeatherDisplay:10.37,2013-02-19 04:47:00,
2013-02-18 23:52:00,42.8,28.6,29.91,South,186,13.0,13.0,57,0.00,CLR,,0.00,WeatherDisplay:10.37,2013-02-19 04:52:00,
2013-02-18 23:57:00,42.8,29.0,29.91,SSW,197,14.0,14.0,58,0.00,CLR,,0.00,WeatherDisplay:10.37,2013-02-19 04:57:00,